Theta_e
307 309 312 315 316 313 313 308 313 311 314 310 308 309 312 311 308 309 309 310 311 313 312 313 312 311 309 308 308 309 308 307 309 309 305 304 307 308 305 308 309 303 301 307
306 307 310 313 317 315 314 307 309 313 309 312 309 310 309 308 308 308 308 309 311 312 312 315 311 308 307 307 306 307 307 309 313 314 309 305 306 305 306 305 304 307 305 309
304 305 307 311 315 316 315 307 310 314 309 311 311 310 309 309 308 309 309 310 310 311 312 311 310 308 306 306 307 307 309 309 312 314 314 308 308 306 305 306 309 307 308 308
303 305 306 307 311 312 315 309 309 313 314 311 311 308 310 309 309 308 309 309 310 312 312 311 311 307 306 306 306 305 306 310 308 309 309 309 310 309 306 305 307 311 312 309
301 303 305 306 306 308 312 309 308 310 309 312 311 311 309 310 309 307 307 309 309 309 311 312 311 307 306 307 304 303 303 309 307 310 308 307 307 308 309 309 307 307 309 310
299 300 303 305 305 304 309 311 309 311 309 307 309 309 311 311 309 308 309 308 309 308 310 312 310 310 308 307 304 304 303 305 306 311 306 307 309 309 309 307 306 308 310 308
299 299 301 303 304 302 301 304 309 309 306 306 308 310 310 311 309 311 308 309 309 309 311 309 309 306 304 303 301 304 304 306 308 311 309 314 309 301 305 306 305 304 304 300
297 298 299 302 303 303 301 301 303 309 306 306 305 308 310 312 312 309 308 308 310 310 312 310 311 309 310 302 296 299 302 307 309 311 310 307 309 299 301 303 305 302 304 298
296 296 299 300 301 303 301 301 301 303 309 309 308 307 308 309 307 306 305 307 308 310 308 310 313 314 311 305 300 297 301 304 310 308 312 311 308 299 299 300 304 297 299 295
296 296 299 300 301 301 301 302 302 301 310 310 309 308 310 311 307 305 303 305 305 308 306 308 310 311 306 307 304 300 303 303 309 311 311 309 304 297 298 306 306 297 298 297
296 296 299 299 300 301 300 302 302 301 302 310 310 310 312 311 310 306 304 305 304 303 308 309 309 308 307 305 302 301 304 306 305 307 309 311 297 296 302 300 296 297 297 297
296 296 298 299 299 300 300 301 302 300 302 306 311 310 310 311 313 311 306 309 304 306 306 303 304 309 304 306 310 300 307 305 304 305 306 299 297 298 298 298 297 296 297 295
296 295 296 299 299 300 300 302 302 302 301 306 310 311 310 309 310 312 308 307 309 307 310 304 301 307 305 309 307 303 302 303 305 303 301 298 297 297 297 297 299 297 296 294
296 295 297 299 299 300 300 300 301 302 301 303 309 311 311 310 310 311 313 312 311 309 309 304 304 305 305 304 306 307 304 302 303 303 297 296 295 296 296 297 295 294 292 291
295 294 297 298 299 300 300 300 301 301 302 302 302 303 309 310 309 309 310 311 311 309 305 302 304 303 303 300 300 303 302 303 307 310 304 304 300 296 296 295 293 292 291 288
295 295 297 298 299 299 300 301 303 303 302 301 302 301 301 305 308 308 309 309 310 309 308 303 305 305 306 307 308 306 308 306 306 302 302 302 300 294 293 292 291 289 288 287
295 295 298 298 299 299 300 300 301 301 302 301 300 297 297 299 302 302 303 305 306 307 307 302 301 301 305 303 313 296 297 297 299 301 301 291 291 290 290 291 288 287 286 285
294 295 298 298 299 300 300 300 300 300 300 300 300 294 295 298 297 296 299 299 302 301 301 299 298 298 299 302 294 290 291 294 295 296 297 298 293 290 288 288 287 286 285 284
295 297 298 298 299 300 300 299 299 299 300 298 295 296 298 295 295 295 296 298 300 296 297 298 299 298 301 296 292 290 292 294 291 292 293 291 290 287 286 286 285 285 284 283
296 298 298 298 298 299 298 297 298 297 297 297 296 294 295 295 295 295 295 297 296 297 296 295 297 298 289 290 292 292 292 293 292 289 285 286 286 286 285 285 284 284 283 282
297 297 297 298 297 297 297 297 297 297 295 294 294 293 294 294 296 295 296 296 296 298 295 297 296 295 288 288 290 290 291 290 290 290 290 288 288 287 285 284 283 283 282 281
297 297 297 296 296 296 297 297 296 296 296 293 293 293 293 294 295 295 295 295 295 296 292 296 296 288 285 286 287 287 288 288 288 288 288 287 286 285 284 283 283 281 281 280
295 296 297 296 296 298 298 298 296 294 292 292 292 292 293 293 294 293 295 294 292 292 294 294 289 285 285 285 285 285 285 286 286 286 286 285 285 283 283 282 281 281 280 280
296 297 296 295 296 291 290 292 291 292 293 293 292 292 293 292 293 293 292 291 292 294 295 293 288 284 284 284 284 285 285 285 285 285 284 284 283 282 281 281 281 280 280 280
294 293 292 290 288 289 289 290 291 292 293 293 293 292 292 292 291 291 291 293 293 293 293 289 285 284 284 283 284 284 284 284 283 283 283 283 282 281 281 280 280 280 280 280
291 288 290 290 291 290 289 290 290 291 292 293 293 293 293 291 292 294 293 295 294 290 285 284 284 284 284 284 284 284 284 283 283 283 282 282 281 281 280 280 280 279 279 279
288 287 286 287 287 287 287 288 288 291 292 291 289 292 290 287 290 289 286 288 284 282 282 283 284 284 283 283 283 283 283 282 282 282 281 281 280 280 280 279 279 278 278 278
Wind_Speed
21 23 24 20 17 15 15 7 4 6 12 5 4 4 6 4 5 6 4 1 5 8 8 8 7 9 4 15 13 7 4 4 4 4 2 1 2 5 6 4 5 3 3 7
24 22 21 22 19 18 13 7 10 10 17 5 4 4 4 6 5 5 7 6 6 3 8 4 5 5 1 14 8 8 7 2 2 3 3 1 4 5 4 4 3 6 4 6
24 24 23 20 27 20 20 6 3 8 18 9 6 6 5 5 9 4 6 4 4 4 4 1 6 4 3 8 5 5 7 3 5 6 3 5 5 6 7 7 4 4 11 7
25 24 26 23 22 13 27 16 6 7 4 8 11 6 6 5 7 8 12 3 7 7 5 4 6 3 3 2 6 3 4 5 2 4 4 3 6 7 11 13 12 9 10 10
27 25 24 29 24 17 34 14 8 8 5 6 11 12 8 11 5 9 6 6 10 8 7 8 9 8 5 6 3 6 1 2 2 4 3 1 7 11 15 16 15 17 22 24
30 29 28 27 32 23 13 25 17 10 6 4 6 6 13 17 10 12 11 16 6 10 10 5 2 10 15 12 10 7 7 5 3 4 1 5 9 15 17 6 5 12 14 12
28 31 33 30 28 32 28 26 19 13 6 6 5 4 10 11 17 13 9 11 9 7 21 23 20 21 20 14 9 5 6 6 2 2 1 4 6 1 4 12 5 12 3 4
31 31 36 31 28 30 34 29 25 15 5 19 14 9 6 5 13 7 9 11 9 31 14 4 4 3 2 2 4 3 1 4 3 3 4 7 9 4 7 8 7 10 10 7
32 35 36 33 31 26 29 34 28 33 8 15 21 13 19 7 5 3 2 8 27 20 3 3 7 7 5 5 1 4 2 3 3 3 4 6 4 3 6 4 5 7 10 11
32 34 31 33 30 26 29 37 32 33 20 19 23 10 14 18 7 4 6 10 10 6 3 3 4 5 6 6 9 6 4 1 9 8 5 7 5 9 7 4 5 7 12 19
32 35 26 31 31 29 25 32 27 26 21 25 38 27 19 12 22 6 10 7 2 2 4 5 5 4 8 4 7 9 9 10 5 4 5 11 14 6 8 4 11 15 16 14
31 35 31 28 31 30 29 35 29 29 24 31 43 37 41 33 22 24 28 7 10 15 3 3 3 3 3 5 4 3 4 7 7 11 8 3 29 2 12 14 18 14 12 11
30 31 34 29 30 27 28 33 30 23 18 24 26 39 43 35 29 27 17 10 9 10 7 7 3 4 4 6 5 5 4 8 3 3 4 6 25 11 16 13 12 13 10 12
28 31 32 27 31 25 27 25 26 21 9 6 7 33 31 37 39 29 26 19 22 12 13 4 3 3 11 5 3 5 5 12 7 4 2 4 12 17 16 13 14 14 14 12
27 33 32 24 27 25 24 25 28 28 17 3 9 13 34 36 33 32 35 24 21 14 6 3 4 5 4 2 2 4 9 7 6 8 14 7 8 25 20 17 17 15 15 14
25 30 28 23 23 25 22 9 18 23 26 7 3 10 13 26 31 29 28 26 23 13 8 5 6 5 5 5 5 2 26 17 18 8 17 9 13 22 20 19 18 16 13 10
26 30 24 22 23 24 20 7 5 2 3 6 2 3 6 15 18 17 18 24 11 10 5 5 6 4 6 1 11 5 9 10 11 18 22 14 19 13 20 19 19 16 13 11
24 28 25 23 27 24 25 27 28 18 7 8 2 1 3 14 5 5 10 8 9 7 6 4 3 5 2 4 2 8 12 16 18 15 7 10 19 23 23 20 19 17 13 11
23 24 21 21 12 13 17 19 19 18 13 4 4 5 3 10 4 6 5 7 3 4 2 3 9 3 5 1 8 16 18 10 16 12 12 17 22 26 24 21 18 14 13 9
19 17 5 6 7 14 12 7 6 8 7 5 2 5 2 4 4 2 5 3 3 3 2 8 2 2 3 6 4 14 17 12 17 22 18 23 25 25 22 18 14 11 9 7
13 6 8 7 7 5 5 5 4 4 2 2 4 4 3 3 2 3 2 3 2 3 2 3 2 1 3 5 8 9 10 13 15 8 12 19 21 24 21 18 14 10 8 6
6 5 4 4 5 4 3 2 0 2 1 1 1 3 4 5 4 3 2 3 1 3 4 2 2 2 6 7 10 11 11 12 10 9 17 17 17 16 15 14 11 9 7 5
9 5 4 2 1 2 2 2 0 2 1 2 3 2 3 4 5 4 2 4 3 3 2 2 2 6 8 10 13 14 12 12 13 15 16 17 17 15 11 10 9 8 6 4
1 1 2 2 2 3 2 3 2 2 4 11 10 4 3 4 3 2 4 2 1 2 2 2 2 8 11 11 12 13 14 13 14 16 16 15 13 12 10 8 7 5 3 2
5 5 4 4 2 3 5 5 6 8 5 4 5 6 5 3 4 2 3 3 3 3 2 2 4 9 12 13 13 14 15 15 15 14 13 11 9 8 7 7 5 4 3 2
5 8 3 6 2 6 11 13 10 12 6 3 4 3 4 4 2 3 4 3 3 2 2 3 8 11 12 13 13 13 14 14 14 12 10 8 7 7 6 5 5 4 3 3
5 5 12 8 7 5 7 11 15 13 4 2 2 5 3 0 4 4 4 3 2 2 5 4 5 8 11 12 13 13 12 12 10 9 8 7 7 7 6 5 5 4 4 4
Wind_Direction
300 300 262 252 260 269 280 275 254 235 189 197 214 199 210 184 188 188 218 204 190 187 175 176 208 202 229 177 156 166 190 135 175 197 309 292 226 186 158 145 213 215 151 270
293 303 290 249 244 249 249 244 246 240 193 194 232 262 246 211 156 201 184 217 209 176 175 195 199 176 178 163 158 163 178 198 104 338 354 340 220 208 171 108 92 205 151 258
299 286 297 269 239 242 228 233 263 199 209 228 176 188 225 225 214 198 190 191 147 137 172 228 183 153 162 168 146 156 149 166 203 194 168 137 191 203 194 171 177 179 231 282
291 286 274 293 261 266 215 199 233 220 201 239 214 174 188 181 199 219 189 228 214 172 160 142 196 146 114 69 162 134 146 210 200 257 229 226 223 200 209 209 212 206 260 228
286 288 280 274 286 311 217 194 192 210 256 233 201 199 209 198 179 166 223 215 186 194 175 185 189 143 176 181 174 161 178 200 125 285 297 297 269 243 233 228 230 245 254 266
284 284 284 275 270 287 285 220 212 207 229 213 173 201 216 227 155 218 204 205 145 204 208 180 206 167 166 147 151 167 159 143 133 256 41 311 276 250 220 184 209 221 233 245
290 280 273 281 274 263 274 293 273 209 232 200 203 212 203 207 201 216 212 198 172 180 152 112 94 82 90 88 54 139 151 146 158 236 305 236 248 185 173 199 220 209 213 171
286 286 275 278 279 269 271 276 297 262 221 222 228 235 227 225 221 180 175 184 192 158 135 95 93 10 63 70 50 20 354 140 166 200 212 305 293 193 157 173 268 202 214 154
290 287 277 273 278 274 276 275 276 282 236 225 213 206 212 194 177 124 156 171 162 165 110 138 167 193 167 202 180 7 73 34 176 149 228 242 249 189 155 126 284 180 168 157
289 290 285 270 278 278 272 285 276 278 266 218 201 195 204 198 163 139 140 149 181 173 144 137 166 216 162 170 173 165 138 168 214 216 244 277 230 158 150 111 242 146 169 164
289 279 289 269 277 281 257 273 273 279 289 260 216 213 192 171 192 163 152 108 198 95 181 168 192 172 207 148 151 169 164 166 188 179 221 265 152 117 178 174 138 149 149 158
289 291 298 274 269 278 269 262 273 283 276 279 221 225 225 225 212 197 168 191 160 179 153 206 125 164 142 153 209 161 199 189 180 190 208 150 177 195 186 161 156 162 167 170
287 289 289 279 269 270 259 265 264 279 291 280 205 215 221 224 217 218 178 212 195 195 185 160 167 177 149 173 219 171 233 175 199 133 195 199 194 187 172 168 167 176 177 172
284 288 289 281 269 273 266 268 262 257 270 278 246 220 220 221 223 220 219 220 197 191 187 151 162 179 192 188 177 193 182 152 176 250 162 119 198 196 177 178 174 168 164 167
285 289 293 273 274 281 275 269 261 245 237 288 322 258 209 210 211 218 224 217 201 178 155 147 211 155 132 76 62 215 187 167 183 232 191 172 184 194 195 185 174 170 172 160
283 288 287 276 270 277 282 265 256 233 235 229 231 231 212 202 206 205 205 203 202 195 175 195 193 181 198 179 224 162 207 209 219 194 162 155 148 175 181 175 166 167 163 156
287 291 281 274 274 281 248 241 223 226 199 202 239 229 168 174 167 169 185 194 192 196 201 209 145 144 188 261 256 111 173 170 150 148 145 116 152 163 169 170 159 158 155 153
296 287 286 277 281 272 246 251 266 261 268 230 210 341 166 161 146 122 149 147 160 176 189 146 116 125 139 242 107 133 142 140 141 148 153 158 161 159 162 164 157 157 157 159
292 278 282 292 227 224 244 258 248 248 214 190 155 172 183 161 118 119 122 142 141 150 161 176 148 144 214 340 178 169 166 165 149 136 129 144 160 160 160 160 158 163 161 164
272 270 271 235 218 233 248 231 225 205 187 188 127 137 148 161 142 104 108 125 134 154 150 142 199 156 78 10 201 180 167 155 154 134 134 153 157 161 162 163 161 164 164 169
257 225 220 228 236 213 212 243 216 152 118 147 134 160 136 151 119 112 96 135 154 137 145 171 153 113 34 48 114 150 157 153 155 150 167 168 167 162 162 161 163 165 166 168
247 244 234 191 185 217 242 251 124 36 131 75 96 122 119 112 115 104 72 101 144 100 140 95 114 68 87 99 109 120 131 140 136 143 149 150 156 158 158 157 159 162 165 171
273 224 197 206 204 235 254 213 60 77 89 147 147 106 96 107 88 82 80 66 52 146 49 70 63 117 118 121 124 123 129 138 139 137 142 146 149 150 154 159 160 160 164 171
280 194 61 13 31 34 359 335 358 21 111 115 108 75 65 53 58 67 82 74 150 76 67 64 102 150 144 145 143 143 135 136 136 137 139 143 148 152 155 156 154 158 169 182
32 27 38 30 349 10 356 15 50 47 75 87 85 72 74 44 78 43 118 107 76 49 74 65 101 149 153 150 149 147 144 142 141 139 140 142 146 151 157 158 163 175 193 216
44 41 19 0 21 18 22 29 28 17 2 23 52 90 75 50 57 53 20 75 57 90 61 108 146 153 158 155 152 149 148 149 149 148 148 150 154 160 165 172 182 193 203 222
36 23 21 28 54 33 22 19 358 357 4 34 24 56 52 76 54 41 13 46 53 62 80 110 140 153 157 158 157 156 157 156 154 153 156 161 167 174 180 185 192 201 215 225